Other Public Products
Issued by NWS Grand Forks, ND

Home | Current Version | Previous Version | Graphics & Text | Print | Product List | Glossary On
Versions: 1 2 3 4 5 6 7 8 9 10 11 12 13 14 15 16 17 18 19 20 21 22 23 24 25 26 27 28 29 30 31 32 33 34 35 36 37 38 39 40 41 42 43 44 45 46 47 48 49 50
000
FPUS83 KFGF 090610
OPUFGF
PRAIRIE TO PINES WEATHER ROUNDUP
NATIONAL WEATHER SERVICE EASTERN NORTH DAKOTA/GRAND FORKS ND
1200 AM CST FRI DEC 09 2016

 **SATELLITE DATA USED TO AUGMENT SKY COVER AT AUTOMATED STATIONS**
 *****  WEATHER ACROSS EASTERN NORTH DAKOTA  *****

CITY           SKY/WX    TMP DP  RH WIND       PRES   REMARKS
GRAND FORKS    FLURRIES   8   1  73 NW9       30.58S WCI  -5
6HR MIN TEMP:   8; 6HR MAX TEMP:  11; 6HR PCP: TRACE;

GRAND FORKS AF CLOUDY     7   0  72 NW8       30.58S WCI  -6
GRAND CITY NWS NOT AVBL
BUXTON         NOT AVBL
DEVILS LAKE    FLURRIES  -2  -5  87 NW9       30.55S WCI -18
6HR MIN TEMP:  -2; 6HR MAX TEMP:   0; 6HR PCP: TRACE;

FARGO          CLOUDY     8   1  73 W7        30.59S WCI  -3
6HR MIN TEMP:   6; 6HR MAX TEMP:  13; 6HR PCP: TRACE;

WAHPETON ARPT  CLOUDY     5   0  78 W10       30.60F WCI -10
$$

 *****  WEATHER ACROSS CENTRAL AND WESTERN NORTH DAKOTA  *****

CITY           SKY/WX    TMP DP  RH WIND       PRES   REMARKS
JAMESTOWN      CLEAR     -5 -10  79 W9        30.56S WCI -22
6HR MIN TEMP:  -5; 6HR MAX TEMP:  -1;

BISMARCK       CLOUDY    -3  -8  79 W5        30.60S WCI -13
6HR MIN TEMP:  -5; 6HR MAX TEMP:   2;

MINOT          CLOUDY    -6 -11  79 W10       30.55F WCI -24
6HR MIN TEMP:  -7; 6HR MAX TEMP:   0;

MINOT AFB      CLOUDY    -9 -15  77 NW12      30.55F WCI -29
6HR MIN TEMP: -10; 6HR MAX TEMP:  -1;

GARRISON         N/A    -11 -16  78 N9        30.55S WCI -29
6HR MIN TEMP: -12; 6HR MAX TEMP:  -5;

WILLISTON      CLOUDY   -17 -23  73 CALM      30.58R
6HR MIN TEMP: -18; 6HR MAX TEMP:  -5;

DICKINSON      CLOUDY   -11 -14  86 CALM      30.46F
6HR MIN TEMP: -16; 6HR MAX TEMP:  -8;

HETTINGER      CLOUDY   -20 -24  82 CALM      30.47F
6HR MIN TEMP: -21; 6HR MAX TEMP:  -5;

$$

 *****  OTHER OBSERVATIONS NORTHEAST NORTH DAKOTA  *****

CITY           SKY/WX    TMP DP  RH WIND       PRES   REMARKS
WALHALLA       FLURRIES   7   7 100 NW13      30.57S WCI  -9
LANGDON        CLOUDY     3  -2  78 NW13      30.51S WCI -14
CAVALIER       FLURRIES   9   1  72 W10       30.57F WCI  -6
GRAFTON        CLOUDY     9   5  85 NW7       30.60S WCI  -3
CANDO          MOCLDY    -2  -8  78 NW7       30.58R WCI -16
FORT TOTTEN      N/A     -1  -5  84 W3        29.95S
ROLLA          FAIR      -8 -11  84 NW8       30.51F WCI -23
RUGBY            N/A     -9 -13  84 W7        30.56S WCI -24
 ***** THE ABOVE OBSERVATIONS ARE NON NWS ARE NOT QUALITY
        CONTROLLED AND MAY MIS-REPORT RAIN FOR SNOW...
$$

 *****  OTHER OBSERVATIONS SOUTHEAST NORTH DAKOTA *****

CITY           SKY/WX    TMP DP  RH WIND       PRES   REMARKS
COOPERSTOWN      N/A      0  -4  85 W10       30.56S WCI -17
VALLEY CITY    CLOUDY     0  -4  85 NW15      30.58F WCI -20
OAKES          NOT AVBL
GWINNER        FAIR       1  -4  78 W12       30.59S WCI -15
SHEYENNE NWR     N/A      0  -8  69 NW8       29.95S WCI -14
BUFFALO        NOT AVBL
WYNDMERE       NOT AVBL
 ***** THE ABOVE OBSERVATIONS ARE NON NWS ARE NOT QUALITY
       CONTROLLED AND MAY MIS-REPORT RAIN FOR SNOW...
$$

  *****  WEATHER ACROSS NORTHERN MINNESOTA  *****

CITY           SKY/WX    TMP DP  RH WIND       PRES   REMARKS
FLAG ISLAND    CLOUDY     7   3  85 W15       30.48S WCI -11
WARROAD        CLOUDY     3   0  85 NW9       30.51F WCI -11
ROSEAU         CLOUDY     3  -2  78 N5        30.52F WCI  -6
HALLOCK        CLOUDY     9   3  78 N5        30.57S WCI   0
THF RVR FALLS  FLURRIES   5   1  83 N6        30.55S WCI  -6
6HR MIN TEMP:   2; 6HR MAX TEMP:  11; 6HR PCP: TRACE;

HALSTAD          N/A      9   5  84 NW6         N/A  WCI  -1
FOSSTON        CLOUDY     3   1  92 NW7       30.53S WCI  -9
BAUDETTE       CLOUDY     5   0  79 W10       30.48R WCI -10
6HR MIN TEMP:   5; 6HR MAX TEMP:  16; 6HR PCP: TRACE;

WASKISH        FLURRIES   9   7  92 NW6       30.49S WCI  -1
CROOKSTON      CLOUDY     9   5  85 N6        30.58S WCI  -1
$$
  *****  WEATHER ACROSS CENTRAL AND WEST MINNESOTA  *****

CITY           SKY/WX    TMP DP  RH WIND       PRES   REMARKS
BEMIDJI        FLURRIES   7   4  86 NW10      30.48R WCI  -7
PARK RAPIDS    CLOUDY     9   2  73 W9        30.48R WCI  -4
6HR MIN TEMP:   5; 6HR MAX TEMP:  11;

WADENA         FLURRIES   9   5  85 NW7       30.50S WCI  -3
DETROIT LAKES  LGT SNOW   9   5  85 NW10      30.53R WCI  -6
MOORHEAD       MIX PCPN   7   1  78 W7        30.59F WCI  -5
FERGUS FALLS   LGT SNOW   3   0  85 NW9       30.63R WCI -11
ELBOW LAKE     LGT SNOW   1  -2  88 NW7       30.57S WCI -12
MORRIS MN      CLEAR      1  -2  85 NW9       30.57S WCI -14
STAPLES        CLOUDY     9   7  92 NW12      30.50S WCI  -6
WHEATON        FLURRIES   3   0  85 W10       30.62S WCI -12
$$
  *****  WEATHER ELSEWHERE ACROSS MINNESOTA  *****

CITY           SKY/WX    TMP DP  RH WIND       PRES   REMARKS
DULUTH         FLURRIES  12   6  77 NW10      30.40R WCI  -1
6HR MIN TEMP:  12; 6HR MAX TEMP:  20; 6HR PCP: TRACE;

INTRNTL FALLS  CLOUDY     8   4  83 NW5       30.44S WCI   0
6HR MIN TEMP:   8; 6HR MAX TEMP:  15; 6HR PCP: TRACE;

ELY            PTCLDY     9   7  92 NW3       30.39R
CLOQUET        CLEAR     12   5  73 NW10      30.43R WCI  -1
BRAINERD       CLOUDY    13  10  88 W5        30.49S WCI   5
6HR MIN TEMP:  12; 6HR MAX TEMP:  19;

HIBBING        MOCLDY     5   1  83 NW7       30.43R WCI  -7
6HR MIN TEMP:   4; 6HR MAX TEMP:  17; 6HR PCP: TRACE;

ALEXANDRIA     PTCLDY     3   0  87 W10       30.52S WCI -12
6HR MIN TEMP:   3; 6HR MAX TEMP:  12; 6HR PCP: TRACE;

SAINT CLOUD    CLEAR     10   7  87 NW6       30.52R WCI   0
6HR MIN TEMP:   9; 6HR MAX TEMP:  18;

MINNEAPOLIS    CLOUDY    18  10  71 NW10      30.52R WCI   6
6HR MIN TEMP:  18; 6HR MAX TEMP:  21; 6HR PCP: TRACE;

$$

  *****  WEATHER ACROSS SOUTH DAKOTA  *****

CITY           SKY/WX    TMP DP  RH WIND       PRES   REMARKS
SIOUX FALLS    CLEAR      4   1  88 NW7       30.59S WCI  -8
6HR MIN TEMP:   4; 6HR MAX TEMP:  13;

BROOKINGS      CLEAR      0  -3  87 NW7       30.56  WCI -13
WATERTOWN      CLEAR     -1  -5  82 NW10      30.54R WCI -17
6HR MIN TEMP:  -1; 6HR MAX TEMP:   8;

HURON          CLEAR     -1  -5  82 NW8       30.63S WCI -15
6HR MIN TEMP:  -2; 6HR MAX TEMP:   7;

SISSETON         N/A      0  -5  79 NW9       30.59S WCI -15
ABERDEEN       CLEAR     -7 -12  79 SW5       30.63S WCI -18
6HR MIN TEMP:  -7; 6HR MAX TEMP:   4;

MITCHELL       CLEAR      1  -3  83 NW7       30.65S WCI -12
PIERRE         CLOUDY     4  -2  76 N6        30.59S WCI  -7
6HR MIN TEMP:   3; 6HR MAX TEMP:   5; 6HR PCP: TRACE;

MOBRIDGE       CLOUDY    -2  -7  79 NW7       30.56R WCI -15
RAPID CITY     CLOUDY     0  -7  72 CALM      30.39F
6HR MIN TEMP:  -6; 6HR MAX TEMP:   1;

$$

  *****  SOME WEATHER IN NEARBY STATES *****

CITY           SKY/WX    TMP DP  RH WIND       PRES   REMARKS
GLASGOW MT     MOCLDY    -5 -10  79 NE8       30.50S WCI -20
6HR MIN TEMP:  -5; 6HR MAX TEMP:   1;

GREAT FALLS MT CLOUDY    -3  -8  79 NE8       30.30S WCI -18
6HR MIN TEMP:  -7; 6HR MAX TEMP:  -2; 6HR PCP: TRACE;

CHEYENNE WY    CLOUDY    10   4  76 SW9       30.09F WCI  -3
6HR MIN TEMP:   3; 6HR MAX TEMP:  10;

SCOTTSBLUFF NE CLOUDY     6  -1  73 E13       30.28F WCI -10
6HR MIN TEMP:   2; 6HR MAX TEMP:   8;

OMAHA NE       CLEAR     12   4  70 NW7       30.65S WCI   1
6HR MIN TEMP:  12; 6HR MAX TEMP:  19;

DES MOINES IA  PTCLDY    16   8  71 NW13      30.59S WCI   2
6HR MIN TEMP:  16; 6HR MAX TEMP:  22;

DAVENPORT IA   CLOUDY    21  13  71 NW14      30.51R WCI   8
6HR MIN TEMP:  21; 6HR MAX TEMP:  22; 6HR PCP: TRACE;

CHICAGO IL     PTCLDY    22  16  78 W12       30.41R WCI  10
6HR MIN TEMP:  21; 6HR MAX TEMP:  24; 6HR PCP:  0.01;

EAU CLAIRE WI  MOCLDY    20  12  71 NW8       30.45R WCI  10
6HR MIN TEMP:  20; 6HR MAX TEMP:  23; 6HR PCP: TRACE;

LA CROSSE WI   CLOUDY    24  15  68 W10       30.47S WCI  14
6HR MIN TEMP:  24; 6HR MAX TEMP:  26; 6HR PCP: TRACE;

$$

  *****  SOME NATIONAL WEATHER *****

CITY           SKY/WX    TMP DP  RH WIND       PRES   REMARKS
LA GUARDIA NY  PTCLDY    36  17  46 W16       29.99S
6HR MIN TEMP:  36; 6HR MAX TEMP:  42;                             C1F1C2F2C3F3C4F4C5F5C6F6C7F7C8F8C9F9CaFaCbFbCcFcCdFdCe!


USA.gov is the U.S. government's official web portal to all federal, state and local government web resources and services.